Вернуться в каталог

STARLINK-34169

АктивенСвязьVLEO
NORAD 63999·PAYLOAD·🇺🇸 United States

Запущен May 14, 2025 с Cape Canaveral Space Force Station

Loading…

Ближайшие Пролёты (ближайшие 24 часа)

TLE

СвежийSource: CelesTrak SupGP

Эпоха: Sep 15, 2026, 03:38 UTC

1 63999C 25101F   26258.15187500  .00039911  00000+0  14453-2 0  2584
2 63999  43.0036   7.8131 0001284 267.1029  69.5709 15.27565830    15

Отслеживайте STARLINK-34169 в реальном времени с AllMySat

Download on the App Store